| time (UTC) | temp C | wind direction | speed KPH | gust KPH | rain 1hr cm | rain 24hr cm | rain mn cm | humidity % | barometer mb |
| 20260505040027 | 17 | 102 | 4.8 | 14.5 | 0.00 | 0.00 | 0.00 | 24 | 1006.4 |
| 20260505035617 | 17 | 143 | 11.3 | 17.7 | 0.00 | 0.00 | 0.00 | 25 | 1006.2 |
| 20260505035543 | 16 | 163 | 12.9 | 17.7 | 0.00 | 0.00 | 0.00 | 25 | 1006.4 |
| 20260505035117 | 17 | 157 | 9.7 | 17.7 | 0.00 | 0.00 | 0.00 | 25 | 1006.2 |
| 20260505035102 | 16 | 98 | 12.9 | 17.7 | 0.00 | 0.00 | 0.00 | 25 | 1006.3 |
| 20260505034617 | 17 | 152 | 6.4 | 14.5 | 0.00 | 0.00 | 0.00 | 25 | 1006.1 |
| 20260505034117 | 17 | 103 | 6.4 | 12.9 | 0.00 | 0.00 | 0.00 | 25 | 1006.1 |
| 20260505034012 | 16 | 107 | 4.8 | 12.9 | 0.00 | 0.00 | 0.00 | 25 | 1006.6 |
| 20260505033638 | 17 | 84 | 9.7 | 14.5 | 0.00 | 0.00 | 0.00 | 25 | 1006.0 |
| 20260505033514 | 16 | 117 | 9.7 | 19.3 | 0.00 | 0.00 | 0.00 | 24 | 1006.2 |
| 20260505033117 | 17 | 64 | 9.7 | 19.3 | 0.00 | 0.00 | 0.00 | 25 | 1006.0 |
| 20260505032617 | 17 | 84 | 9.7 | 19.3 | 0.00 | 0.00 | 0.00 | 24 | 1005.4 |
| 20260505032526 | 17 | 50 | 14.5 | 17.7 | 0.00 | 0.00 | 0.00 | 24 | 1005.9 |
| 20260505032117 | 17 | 90 | 12.9 | 20.9 | 0.00 | 0.00 | 0.00 | 24 | 1005.4 |
| 20260505032044 | 16 | 111 | 4.8 | 20.9 | 0.00 | 0.00 | 0.00 | 24 | 1005.8 |
| 20260505031638 | 17 | 76 | 14.5 | 22.5 | 0.00 | 0.00 | 0.00 | 25 | 1005.3 |
| 20260505031605 | 16 | 95 | 16.1 | 22.5 | 0.00 | 0.00 | 0.00 | 24 | 1005.6 |
| 20260505031117 | 17 | 75 | 14.5 | 22.5 | 0.00 | 0.00 | 0.00 | 24 | 1005.3 |
| 20260505031011 | 16 | 71 | 19.3 | 22.5 | 0.00 | 0.00 | 0.00 | 25 | 1005.7 |
| 20260505030638 | 17 | 74 | 14.5 | 24.1 | 0.00 | 0.00 | 0.00 | 25 | 1005.3 |
| 20260505030117 | 16 | 82 | 14.5 | 24.1 | 0.00 | 0.00 | 0.00 | 25 | 1005.2 |
| 20260505030031 | 16 | 67 | 17.7 | 24.1 | 0.00 | 0.00 | 0.00 | 25 | 1005.6 |
| 20260505025617 | 17 | 84 | 14.5 | 22.5 | 0.00 | 0.00 | 0.00 | 26 | 1005.2 |
| 20260505025544 | 16 | 81 | 14.5 | 22.5 | 0.00 | 0.00 | 0.00 | 25 | 1005.5 |
| 20260505025117 | 17 | 63 | 17.7 | 32.2 | 0.00 | 0.00 | 0.00 | 25 | 1005.2 |
| 20260505024617 | 17 | 52 | 20.9 | 32.2 | 0.00 | 0.00 | 0.00 | 24 | 1005.2 |
| 20260505024604 | 17 | 48 | 9.7 | 32.2 | 0.00 | 0.00 | 0.00 | 24 | 1005.5 |
| 20260505024117 | 17 | 50 | 22.5 | 33.8 | 0.00 | 0.00 | 0.00 | 24 | 1005.1 |
| 20260505024012 | 17 | 51 | 27.4 | 33.8 | 0.00 | 0.00 | 0.00 | 24 | 1005.4 |
| 20260505023638 | 17 | 47 | 22.5 | 37.0 | 0.00 | 0.00 | 0.00 | 24 | 1005.1 |
| 20260505023526 | 17 | 55 | 17.7 | 37.0 | 0.00 | 0.00 | 0.00 | 24 | 1005.4 |
| 20260505023117 | 17 | 48 | 20.9 | 37.0 | 0.00 | 0.00 | 0.00 | 25 | 1005.1 |
| 20260505023049 | 17 | 28 | 25.7 | 37.0 | 0.00 | 0.00 | 0.00 | 25 | 1005.4 |
| 20260505022617 | 17 | 51 | 22.5 | 33.8 | 0.00 | 0.00 | 0.00 | 25 | 1005.0 |
| 20260505022550 | 17 | 28 | 29.0 | 33.8 | 0.00 | 0.00 | 0.00 | 25 | 1005.4 |
| 20260505022117 | 17 | 49 | 24.1 | 37.0 | 0.00 | 0.00 | 0.00 | 26 | 1005.0 |
| 20260505021959 | 17 | 49 | 22.5 | 37.0 | 0.00 | 0.00 | 0.00 | 26 | 1005.3 |
| 20260505021617 | 17 | 50 | 22.5 | 37.0 | 0.00 | 0.00 | 0.00 | 26 | 1005.0 |
| 20260505021520 | 17 | 27 | 27.4 | 37.0 | 0.00 | 0.00 | 0.00 | 26 | 1005.3 |
| 20260505021117 | 17 | 50 | 22.5 | 37.0 | 0.00 | 0.00 | 0.00 | 26 | 1005.1 |
| 20260505021036 | 17 | 65 | 20.9 | 37.0 | 0.00 | 0.00 | 0.00 | 26 | 1005.3 |
| 20260505020617 | 17 | 48 | 24.1 | 43.5 | 0.00 | 0.00 | 0.00 | 25 | 1005.1 |
| 20260505020556 | 17 | 53 | 19.3 | 38.6 | 0.00 | 0.00 | 0.00 | 25 | 1005.2 |
| 20260505020117 | 17 | 45 | 25.7 | 43.5 | 0.00 | 0.00 | 0.00 | 25 | 1005.1 |
| 20260505020007 | 17 | 45 | 25.7 | 43.5 | 0.00 | 0.00 | 0.00 | 25 | 1005.4 |
| 20260505015617 | 17 | 43 | 25.7 | 41.8 | 0.00 | 0.00 | 0.00 | 25 | 1004.9 |
| 20260505015522 | 17 | 62 | 30.6 | 40.2 | 0.00 | 0.00 | 0.00 | 25 | 1005.3 |
| 20260505015117 | 17 | 44 | 24.1 | 40.2 | 0.00 | 0.00 | 0.00 | 25 | 1004.9 |
| 20260505015043 | 17 | 53 | 40.2 | 40.2 | 0.00 | 0.00 | 0.00 | 25 | 1005.3 |
| 20260505014617 | 18 | 41 | 25.7 | 41.8 | 0.00 | 0.00 | 0.00 | 25 | 1004.9 |
| 20260505014604 | 17 | 70 | 22.5 | 41.8 | 0.00 | 0.00 | 0.00 | 25 | 1005.1 |
| 20260505014117 | 18 | 37 | 27.4 | 43.5 | 0.00 | 0.00 | 0.00 | 24 | 1004.9 |
| 20260505014009 | 18 | 45 | 30.6 | 46.7 | 0.00 | 0.00 | 0.00 | 24 | 1005.1 |
| 20260505013617 | 18 | 34 | 25.7 | 43.5 | 0.00 | 0.00 | 0.00 | 23 | 1004.9 |
| 20260505013117 | 19 | 26 | 27.4 | 43.5 | 0.00 | 0.00 | 0.00 | 22 | 1004.9 |
| 20260505013034 | 19 | 28 | 32.2 | 43.5 | 0.00 | 0.00 | 0.00 | 21 | 1005.2 |
| 20260505012617 | 20 | 15 | 24.1 | 43.5 | 0.00 | 0.00 | 0.00 | 19 | 1005.1 |
| 20260505012552 | 20 | 34 | 22.5 | 43.5 | 0.00 | 0.00 | 0.00 | 19 | 1005.2 |
| 20260505012117 | 21 | 7 | 17.7 | 32.2 | 0.00 | 0.00 | 0.00 | 17 | 1005.1 |
| 20260505012001 | 21 | 9 | 19.3 | 32.2 | 0.00 | 0.00 | 0.00 | 17 | 1005.3 |
| 20260505011617 | 21 | 2 | 12.9 | 22.5 | 0.00 | 0.00 | 0.00 | 16 | 1005.1 |
| 20260505011521 | 21 | 9 | 14.5 | 20.9 | 0.00 | 0.00 | 0.00 | 16 | 1005.1 |
| 20260505011117 | 22 | 341 | 12.9 | 20.9 | 0.00 | 0.00 | 0.00 | 16 | 1005.0 |
| 20260505011037 | 22 | 360 | 8.0 | 20.9 | 0.00 | 0.00 | 0.00 | 16 | 1005.3 |
| 20260505010617 | 23 | 317 | 11.3 | 20.9 | 0.00 | 0.00 | 0.00 | 14 | 1005.0 |
| 20260505010556 | 23 | 360 | 17.7 | 20.9 | 0.00 | 0.00 | 0.00 | 13 | 1005.3 |
| 20260505010138 | 23 | 292 | 8.0 | 16.1 | 0.00 | 0.00 | 0.00 | 10 | 1005.0 |
| 20260505010008 | 23 | 319 | 6.4 | 16.1 | 0.00 | 0.00 | 0.00 | 9 | 1005.3 |
| 20260505005617 | 24 | 295 | 6.4 | 16.1 | 0.00 | 0.00 | 0.00 | 8 | 1004.9 |
| 20260505005522 | 24 | 304 | 16.1 | 16.1 | 0.00 | 0.00 | 0.00 | 10 | 1005.3 |
| 20260505005117 | 24 | 312 | 8.0 | 17.7 | 0.00 | 0.00 | 0.00 | 8 | 1004.9 |
| 20260505005044 | 24 | 269 | 6.4 | 17.7 | 0.00 | 0.00 | 0.00 | 8 | 1005.3 |
| 20260505004638 | 24 | 306 | 9.7 | 17.7 | 0.00 | 0.00 | 0.00 | 11 | 1004.9 |
| 20260505004606 | 24 | 317 | 8.0 | 17.7 | 0.00 | 0.00 | 0.00 | 11 | 1005.3 |
| 20260505004117 | 24 | 320 | 8.0 | 17.7 | 0.00 | 0.00 | 0.00 | 10 | 1005.0 |
| 20260505004013 | 23 | 284 | 11.3 | 17.7 | 0.00 | 0.00 | 0.00 | 9 | 1005.3 |
| 20260505003617 | 24 | 326 | 9.7 | 19.3 | 0.00 | 0.00 | 0.00 | 11 | 1005.1 |
| 20260505003536 | 23 | 338 | 9.7 | 19.3 | 0.00 | 0.00 | 0.00 | 10 | 1005.3 |
| 20260505003117 | 24 | 305 | 9.7 | 19.3 | 0.00 | 0.00 | 0.00 | 12 | 1005.1 |
| 20260505003059 | 24 | 318 | 6.4 | 19.3 | 0.00 | 0.00 | 0.00 | 12 | 1005.3 |
| 20260505002638 | 24 | 300 | 11.3 | 25.7 | 0.00 | 0.00 | 0.00 | 11 | 1005.1 |
| 20260505002507 | 23 | 286 | 12.9 | 25.7 | 0.00 | 0.00 | 0.00 | 9 | 1005.3 |
| 20260505002138 | 24 | 306 | 11.3 | 25.7 | 0.00 | 0.00 | 0.00 | 9 | 1005.1 |
| 20260505002026 | 24 | 319 | 16.1 | 25.7 | 0.00 | 0.00 | 0.00 | 9 | 1005.5 |
| 20260505001638 | 24 | 302 | 6.4 | 16.1 | 0.00 | 0.00 | 0.00 | 11 | 1005.1 |
| 20260505001550 | 24 | 328 | 12.9 | 16.1 | 0.00 | 0.00 | 0.00 | 12 | 1005.5 |
| 20260505001117 | 24 | 271 | 8.0 | 16.1 | 0.00 | 0.00 | 0.00 | 8 | 1005.3 |
| 20260505001001 | 24 | 282 | 6.4 | 16.1 | 0.00 | 0.00 | 0.00 | 8 | 1005.5 |
| 20260505000638 | 24 | 263 | 8.0 | 17.7 | 0.00 | 0.00 | 0.00 | 8 | 1005.3 |
| 20260505000517 | 24 | 266 | 3.2 | 17.7 | 0.00 | 0.00 | 0.00 | 8 | 1005.4 |
| 20260505000117 | 25 | 271 | 8.0 | 17.7 | 0.00 | 0.00 | 0.00 | 8 | 1005.3 |
| 20260505000035 | 24 | 269 | 9.7 | 14.5 | 0.00 | 0.00 | 0.00 | 9 | 1005.4 |
| 20260504235617 | 25 | 290 | 6.4 | 14.5 | 0.00 | 0.00 | 0.00 | 9 | 1005.3 |
| 20260504235117 | 25 | 301 | 6.4 | 14.5 | 0.00 | 0.00 | 0.00 | 9 | 1005.3 |
| 20260504235051 | 24 | 277 | 3.2 | 14.5 | 0.00 | 0.00 | 0.00 | 9 | 1005.6 |
| 20260504234617 | 24 | 313 | 8.0 | 17.7 | 0.00 | 0.00 | 0.00 | 11 | 1005.3 |
| 20260504234502 | 24 | 311 | 6.4 | 17.7 | 0.00 | 0.00 | 0.00 | 11 | 1005.6 |
| 20260504234117 | 24 | 296 | 11.3 | 20.9 | 0.00 | 0.00 | 0.00 | 12 | 1005.2 |
| 20260504234012 | 24 | 337 | 9.7 | 20.9 | 0.00 | 0.00 | 0.00 | 11 | 1005.5 |
| 20260504233617 | 24 | 283 | 9.7 | 20.9 | 0.00 | 0.00 | 0.00 | 10 | 1005.3 |
| 20260504233514 | 24 | 283 | 14.5 | 20.9 | 0.00 | 0.00 | 0.00 | 9 | 1005.6 |
| 20260504233117 | 24 | 285 | 9.7 | 20.9 | 0.00 | 0.00 | 0.00 | 11 | 1005.3 |
| 20260504233035 | 24 | 297 | 12.9 | 19.3 | 0.00 | 0.00 | 0.00 | 10 | 1005.5 |
| 20260504232617 | 24 | 286 | 12.9 | 19.3 | 0.00 | 0.00 | 0.00 | 10 | 1005.3 |
| 20260504232553 | 24 | 277 | 9.7 | 20.9 | 0.00 | 0.00 | 0.00 | 9 | 1005.6 |
| 20260504232117 | 24 | 296 | 12.9 | 25.7 | 0.00 | 0.00 | 0.00 | 11 | 1005.3 |
| 20260504232003 | 24 | 274 | 14.5 | 25.7 | 0.00 | 0.00 | 0.00 | 10 | 1005.6 |
| 20260504231617 | 25 | 307 | 12.9 | 25.7 | 0.00 | 0.00 | 0.00 | 14 | 1005.3 |
| 20260504231525 | 24 | 333 | 4.8 | 25.7 | 0.00 | 0.00 | 0.00 | 13 | 1005.8 |
| 20260504231117 | 25 | 314 | 14.5 | 25.7 | 0.00 | 0.00 | 0.00 | 10 | 1005.4 |
| 20260504231038 | 24 | 298 | 19.3 | 25.7 | 0.00 | 0.00 | 0.00 | 10 | 1005.6 |
| 20260504230617 | 24 | 314 | 12.9 | 29.0 | 0.00 | 0.00 | 0.00 | 11 | 1005.4 |
| 20260504230558 | 24 | 326 | 12.9 | 29.0 | 0.00 | 0.00 | 0.00 | 11 | 1005.7 |
| 20260504230117 | 24 | 296 | 12.9 | 29.0 | 0.00 | 0.00 | 0.00 | 10 | 1005.4 |
| 20260504230008 | 24 | 335 | 17.7 | 24.1 | 0.00 | 0.00 | 0.00 | 9 | 1005.7 |
| 20260504225617 | 25 | 298 | 14.5 | 24.1 | 0.00 | 0.00 | 0.00 | 9 | 1005.8 |
| 20260504225524 | 24 | 275 | 20.9 | 24.1 | 0.00 | 0.00 | 0.00 | 9 | 1005.8 |
| 20260504225117 | 24 | 309 | 11.3 | 24.1 | 0.00 | 0.00 | 0.00 | 10 | 1005.8 |
| 20260504225046 | 24 | 306 | 14.5 | 24.1 | 0.00 | 0.00 | 0.00 | 11 | 1005.9 |
| 20260504224617 | 24 | 304 | 12.9 | 24.1 | 0.00 | 0.00 | 0.00 | 11 | 1005.8 |
| 20260504224608 | 24 | 284 | 9.7 | 24.1 | 0.00 | 0.00 | 0.00 | 11 | 1006.0 |
| 20260504224117 | 24 | 310 | 16.1 | 27.4 | 0.00 | 0.00 | 0.00 | 7 | 1005.6 |
| 20260504224012 | 24 | 311 | 16.1 | 27.4 | 0.00 | 0.00 | 0.00 | 8 | 1006.0 |
| 20260504223638 | 24 | 308 | 12.9 | 27.4 | 0.00 | 0.00 | 0.00 | 10 | 1005.8 |
| 20260504223540 | 23 | 279 | 19.3 | 27.4 | 0.00 | 0.00 | 0.00 | 11 | 1006.1 |
| 20260504223117 | 23 | 273 | 12.9 | 32.2 | 0.00 | 0.00 | 0.00 | 11 | 1005.8 |
| 20260504223100 | 23 | 313 | 14.5 | 32.2 | 0.00 | 0.00 | 0.00 | 11 | 1006.0 |
| 20260504222617 | 23 | 261 | 11.3 | 30.6 | 0.00 | 0.00 | 0.00 | 8 | 1006.0 |
| 20260504222504 | 23 | 279 | 17.7 | 32.2 | 0.00 | 0.00 | 0.00 | 7 | 1006.1 |
| 20260504222117 | 23 | 258 | 11.3 | 24.1 | 0.00 | 0.00 | 0.00 | 12 | 1006.0 |
| 20260504222024 | 23 | 222 | 8.0 | 24.1 | 0.00 | 0.00 | 0.00 | 11 | 1006.1 |
| 20260504221617 | 24 | 276 | 12.9 | 24.1 | 0.00 | 0.00 | 0.00 | 9 | 1006.0 |
| 20260504221546 | 23 | 258 | 11.3 | 24.1 | 0.00 | 0.00 | 0.00 | 8 | 1006.1 |
| 20260504221117 | 24 | 286 | 12.9 | 22.5 | 0.00 | 0.00 | 0.00 | 7 | 1006.0 |
| 20260504221100 | 23 | 281 | 4.8 | 22.5 | 0.00 | 0.00 | 0.00 | 7 | 1006.3 |
| 20260504220617 | 24 | 301 | 12.9 | 22.5 | 0.00 | 0.00 | 0.00 | 8 | 1006.2 |
| 20260504220511 | 24 | 288 | 16.1 | 22.5 | 0.00 | 0.00 | 0.00 | 8 | 1006.4 |
| 20260504220117 | 24 | 309 | 14.5 | 24.1 | 0.00 | 0.00 | 0.00 | 10 | 1006.2 |
| 20260504220031 | 24 | 307 | 16.1 | 24.1 | 0.00 | 0.00 | 0.00 | 11 | 1006.5 |
| 20260504215617 | 24 | 312 | 14.5 | 24.1 | 0.00 | 0.00 | 0.00 | 10 | 1006.2 |
| 20260504215544 | 24 | 345 | 16.1 | 24.1 | 0.00 | 0.00 | 0.00 | 10 | 1006.5 |
| 20260504215117 | 24 | 309 | 14.5 | 24.1 | 0.00 | 0.00 | 0.00 | 10 | 1006.5 |
| 20260504214638 | 24 | 298 | 14.5 | 25.7 | 0.00 | 0.00 | 0.00 | 13 | 1006.5 |
| 20260504214501 | 23 | 294 | 12.9 | 25.7 | 0.00 | 0.00 | 0.00 | 10 | 1006.8 |
| 20260504214138 | 24 | 290 | 12.9 | 25.7 | 0.00 | 0.00 | 0.00 | 9 | 1006.5 |
| 20260504214012 | 23 | 311 | 12.9 | 25.7 | 0.00 | 0.00 | 0.00 | 10 | 1006.8 |
| 20260504213617 | 24 | 292 | 12.9 | 24.1 | 0.00 | 0.00 | 0.00 | 11 | 1006.7 |
| 20260504213532 | 23 | 278 | 12.9 | 25.7 | 0.00 | 0.00 | 0.00 | 11 | 1006.8 |
| 20260504213138 | 23 | 298 | 12.9 | 22.5 | 0.00 | 0.00 | 0.00 | 11 | 1006.7 |
| 20260504213053 | 23 | 290 | 8.0 | 25.7 | 0.00 | 0.00 | 0.00 | 13 | 1006.9 |
| 20260504212638 | 23 | 290 | 14.5 | 22.5 | 0.00 | 0.00 | 0.00 | 12 | 1006.7 |
| 20260504212459 | 23 | 276 | 4.8 | 27.4 | 0.00 | 0.00 | 0.00 | 13 | 1007.0 |
| 20260504212117 | 23 | 289 | 14.5 | 27.4 | 0.00 | 0.00 | 0.00 | 11 | 1006.7 |
| 20260504212018 | 23 | 275 | 16.1 | 27.4 | 0.00 | 0.00 | 0.00 | 10 | 1007.0 |
| 20260504211617 | 23 | 291 | 16.1 | 29.0 | 0.00 | 0.00 | 0.00 | 11 | 1006.7 |
| 20260504211538 | 23 | 286 | 14.5 | 29.0 | 0.00 | 0.00 | 0.00 | 13 | 1006.9 |
| 20260504211138 | 23 | 292 | 14.5 | 29.0 | 0.00 | 0.00 | 0.00 | 14 | 1006.7 |
| 20260504211053 | 23 | 279 | 17.7 | 29.0 | 0.00 | 0.00 | 0.00 | 13 | 1007.0 |
| 20260504210638 | 23 | 291 | 12.9 | 22.5 | 0.00 | 0.00 | 0.00 | 15 | 1006.8 |
| 20260504210502 | 23 | 278 | 11.3 | 24.1 | 0.00 | 0.00 | 0.00 | 13 | 1007.1 |
| 20260504210117 | 23 | 276 | 11.3 | 22.5 | 0.00 | 0.00 | 0.00 | 13 | 1006.8 |
| 20260504210022 | 23 | 279 | 17.7 | 20.9 | 0.00 | 0.00 | 0.00 | 15 | 1007.1 |
| 20260504205617 | 23 | 263 | 12.9 | 24.1 | 0.00 | 0.00 | 0.00 | 16 | 1006.8 |
| 20260504205537 | 23 | 261 | 11.3 | 24.1 | 0.00 | 0.00 | 0.00 | 17 | 1007.2 |
| 20260504205117 | 23 | 269 | 12.9 | 24.1 | 0.00 | 0.00 | 0.00 | 14 | 1007.0 |
| 20260504205057 | 22 | 243 | 8.0 | 24.1 | 0.00 | 0.00 | 0.00 | 14 | 1007.2 |
| 20260504204617 | 23 | 261 | 14.5 | 24.1 | 0.00 | 0.00 | 0.00 | 15 | 1007.0 |
| 20260504204605 | 22 | 271 | 19.3 | 24.1 | 0.00 | 0.00 | 0.00 | 15 | 1007.2 |
| 20260504204117 | 22 | 257 | 14.5 | 24.1 | 0.00 | 0.00 | 0.00 | 14 | 1007.0 |
| 20260504204012 | 22 | 280 | 14.5 | 24.1 | 0.00 | 0.00 | 0.00 | 15 | 1007.5 |
| 20260504203638 | 23 | 265 | 11.3 | 22.5 | 0.00 | 0.00 | 0.00 | 16 | 1007.1 |
| 20260504203502 | 22 | 259 | 11.3 | 22.5 | 0.00 | 0.00 | 0.00 | 11 | 1007.3 |
| 20260504203117 | 23 | 265 | 9.7 | 22.5 | 0.00 | 0.00 | 0.00 | 15 | 1007.1 |
| 20260504203023 | 22 | 226 | 9.7 | 22.5 | 0.00 | 0.00 | 0.00 | 14 | 1007.4 |
| 20260504202617 | 22 | 277 | 12.9 | 22.5 | 0.00 | 0.00 | 0.00 | 13 | 1007.1 |
| 20260504202541 | 22 | 242 | 6.4 | 22.5 | 0.00 | 0.00 | 0.00 | 14 | 1007.5 |
| 20260504202117 | 23 | 277 | 12.9 | 22.5 | 0.00 | 0.00 | 0.00 | 15 | 1007.2 |
| 20260504202058 | 22 | 274 | 20.9 | 22.5 | 0.00 | 0.00 | 0.00 | 15 | 1007.5 |
| 20260504201617 | 22 | 256 | 9.7 | 20.9 | 0.00 | 0.00 | 0.00 | 16 | 1007.3 |
| 20260504201117 | 22 | 268 | 12.9 | 27.4 | 0.00 | 0.00 | 0.00 | 18 | 1007.3 |
| 20260504201000 | 22 | 277 | 6.4 | 27.4 | 0.00 | 0.00 | 0.00 | 17 | 1007.5 |
| 20260504200617 | 22 | 274 | 11.3 | 27.4 | 0.00 | 0.00 | 0.00 | 16 | 1007.6 |
| 20260504200117 | 22 | 273 | 11.3 | 22.5 | 0.00 | 0.00 | 0.00 | 18 | 1007.6 |
| 20260504200026 | 22 | 310 | 11.3 | 20.9 | 0.00 | 0.00 | 0.00 | 19 | 1007.6 |
| 20260504195617 | 22 | 281 | 12.9 | 20.9 | 0.00 | 0.00 | 0.00 | 16 | 1007.6 |
| 20260504195538 | 22 | 276 | 6.4 | 20.9 | 0.00 | 0.00 | 0.00 | 15 | 1007.8 |
| 20260504195138 | 22 | 283 | 11.3 | 20.9 | 0.00 | 0.00 | 0.00 | 19 | 1007.5 |
| 20260504195054 | 22 | 305 | 8.0 | 20.9 | 0.00 | 0.00 | 0.00 | 19 | 1007.8 |
| 20260504194617 | 22 | 270 | 12.9 | 20.9 | 0.00 | 0.00 | 0.00 | 16 | 1007.5 |
| 20260504194506 | 22 | 294 | 16.1 | 20.9 | 0.00 | 0.00 | 0.00 | 17 | 1007.9 |
| 20260504194117 | 22 | 279 | 11.3 | 20.9 | 0.00 | 0.00 | 0.00 | 18 | 1007.5 |
| 20260504193617 | 22 | 308 | 9.7 | 20.9 | 0.00 | 0.00 | 0.00 | 17 | 1007.5 |
| 20260504193521 | 22 | 308 | 12.9 | 20.9 | 0.00 | 0.00 | 0.00 | 18 | 1007.9 |
| 20260504193117 | 22 | 318 | 6.4 | 17.7 | 0.00 | 0.00 | 0.00 | 22 | 1007.5 |
| 20260504192617 | 22 | 285 | 6.4 | 17.7 | 0.00 | 0.00 | 0.00 | 20 | 1007.9 |
| 20260504192530 | 21 | 279 | 11.3 | 16.1 | 0.00 | 0.00 | 0.00 | 21 | 1008.1 |
| 20260504192117 | 22 | 303 | 8.0 | 16.1 | 0.00 | 0.00 | 0.00 | 18 | 1007.9 |
| 20260504192049 | 21 | 257 | 4.8 | 16.1 | 0.00 | 0.00 | 0.00 | 21 | 1008.2 |
| 20260504191617 | 21 | 308 | 8.0 | 22.5 | 0.00 | 0.00 | 0.00 | 22 | 1008.2 |
| 20260504191610 | 21 | 313 | 9.7 | 22.5 | 0.00 | 0.00 | 0.00 | 22 | 1008.4 |
| 20260504191117 | 21 | 311 | 9.7 | 22.5 | 0.00 | 0.00 | 0.00 | 21 | 1008.2 |
| 20260504190617 | 21 | 315 | 9.7 | 17.7 | 0.00 | 0.00 | 0.00 | 21 | 1008.2 |
| 20260504190138 | 21 | 304 | 11.3 | 20.9 | 0.00 | 0.00 | 0.00 | 21 | 1008.4 |
| 20260504190025 | 21 | 303 | 14.5 | 20.9 | 0.00 | 0.00 | 0.00 | 22 | 1008.7 |
| 20260504185638 | 21 | 300 | 8.0 | 20.9 | 0.00 | 0.00 | 0.00 | 23 | 1008.4 |
| 20260504185117 | 21 | 303 | 6.4 | 19.3 | 0.00 | 0.00 | 0.00 | 23 | 1008.4 |
| 20260504185045 | 21 | 309 | 17.7 | 17.7 | 0.00 | 0.00 | 0.00 | 24 | 1008.8 |
| 20260504184617 | 21 | 295 | 8.0 | 17.7 | 0.00 | 0.00 | 0.00 | 23 | 1008.6 |
| 20260504184605 | 21 | 317 | 3.2 | 17.7 | 0.00 | 0.00 | 0.00 | 23 | 1008.9 |
| 20260504184117 | 21 | 286 | 8.0 | 19.3 | 0.00 | 0.00 | 0.00 | 25 | 1008.6 |
| 20260504184011 | 21 | 277 | 6.4 | 19.3 | 0.00 | 0.00 | 0.00 | 24 | 1008.9 |
| 20260504183617 | 21 | 300 | 8.0 | 19.3 | 0.00 | 0.00 | 0.00 | 23 | 1008.5 |
| 20260504183517 | 20 | 276 | 14.5 | 19.3 | 0.00 | 0.00 | 0.00 | 25 | 1009.0 |
| 20260504183117 | 21 | 314 | 4.8 | 12.9 | 0.00 | 0.00 | 0.00 | 23 | 1008.6 |
| 20260504183036 | 20 | 283 | 0.0 | 12.9 | 0.00 | 0.00 | 0.00 | 23 | 1009.0 |
| 20260504182638 | 20 | 280 | 6.4 | 17.7 | 0.00 | 0.00 | 0.00 | 26 | 1008.6 |
| 20260504182552 | 20 | 317 | 9.7 | 12.9 | 0.00 | 0.00 | 0.00 | 25 | 1009.1 |
| 20260504182117 | 20 | 260 | 6.4 | 17.7 | 0.00 | 0.00 | 0.00 | 24 | 1008.6 |
| 20260504182003 | 20 | 232 | 6.4 | 17.7 | 0.00 | 0.00 | 0.00 | 24 | 1009.0 |
| 20260504181617 | 20 | 275 | 8.0 | 16.1 | 0.00 | 0.00 | 0.00 | 23 | 1008.8 |
| 20260504181523 | 20 | 242 | 17.7 | 17.7 | 0.00 | 0.00 | 0.00 | 24 | 1009.0 |
| 20260504181117 | 20 | 266 | 8.0 | 16.1 | 0.00 | 0.00 | 0.00 | 26 | 1008.8 |
| 20260504181040 | 20 | 307 | 6.4 | 16.1 | 0.00 | 0.00 | 0.00 | 25 | 1009.1 |
| 20260504180617 | 20 | 237 | 6.4 | 16.1 | 0.00 | 0.00 | 0.00 | 25 | 1008.8 |
| 20260504180602 | 19 | 294 | 3.2 | 16.1 | 0.00 | 0.00 | 0.00 | 25 | 1009.0 |
| 20260504180117 | 20 | 245 | 6.4 | 16.1 | 0.00 | 0.00 | 0.00 | 23 | 1008.9 |
| 20260504180008 | 19 | 254 | 8.0 | 14.5 | 0.00 | 0.00 | 0.00 | 25 | 1009.1 |
| 20260504175617 | 19 | 264 | 6.4 | 12.9 | 0.00 | 0.00 | 0.00 | 27 | 1008.9 |
| 20260504175525 | 19 | 288 | 6.4 | 14.5 | 0.00 | 0.00 | 0.00 | 26 | 1009.1 |
| 20260504175117 | 19 | 271 | 8.0 | 17.7 | 0.00 | 0.00 | 0.00 | 24 | 1008.9 |
| 20260504175043 | 19 | 263 | 6.4 | 17.7 | 0.00 | 0.00 | 0.00 | 25 | 1009.1 |
| 20260504174617 | 19 | 258 | 8.0 | 17.7 | 0.00 | 0.00 | 0.00 | 24 | 1009.1 |
| 20260504174605 | 19 | 309 | 3.2 | 17.7 | 0.00 | 0.00 | 0.00 | 24 | 1009.3 |
| 20260504174117 | 19 | 250 | 8.0 | 16.1 | 0.00 | 0.00 | 0.00 | 25 | 1009.1 |
| 20260504174011 | 19 | 229 | 8.0 | 16.1 | 0.00 | 0.00 | 0.00 | 24 | 1009.3 |
| 20260504173617 | 19 | 268 | 4.8 | 14.5 | 0.00 | 0.00 | 0.00 | 23 | 1009.0 |
| 20260504173458 | 19 | 252 | 8.0 | 14.5 | 0.00 | 0.00 | 0.00 | 25 | 1009.3 |
| 20260504173117 | 19 | 274 | 6.4 | 14.5 | 0.00 | 0.00 | 0.00 | 23 | 1008.8 |
| 20260504173020 | 18 | 278 | 9.7 | 14.5 | 0.00 | 0.00 | 0.00 | 22 | 1009.4 |
| 20260504172617 | 18 | 270 | 6.4 | 14.5 | 0.00 | 0.00 | 0.00 | 23 | 1008.8 |
| 20260504172536 | 18 | 287 | 3.2 | 14.5 | 0.00 | 0.00 | 0.00 | 23 | 1009.3 |
| 20260504172117 | 18 | 267 | 6.4 | 14.5 | 0.00 | 0.00 | 0.00 | 23 | 1009.1 |
| 20260504172022 | 18 | 257 | 3.2 | 14.5 | 0.00 | 0.00 | 0.00 | 22 | 1009.4 |
| 20260504171638 | 18 | 262 | 4.8 | 12.9 | 0.00 | 0.00 | 0.00 | 24 | 1009.1 |
| 20260504171540 | 18 | 306 | 8.0 | 16.1 | 0.00 | 0.00 | 0.00 | 24 | 1009.3 |
| 20260504171117 | 18 | 254 | 4.8 | 16.1 | 0.00 | 0.00 | 0.00 | 22 | 1009.1 |
| 20260504170638 | 18 | 254 | 4.8 | 16.1 | 0.00 | 0.00 | 0.00 | 23 | 1009.1 |
| 20260504170557 | 18 | 241 | 12.9 | 12.9 | 0.00 | 0.00 | 0.00 | 23 | 1009.5 |
| 20260504170117 | 18 | 238 | 3.2 | 11.3 | 0.00 | 0.00 | 0.00 | 22 | 1009.3 |
| 20260504160200 | 16 | 273 | 4.8 | 9.7 | 0.00 | 0.00 | 0.00 | 27 | 1009.6 |
| 20260504160117 | 16 | 269 | 3.2 | 9.7 | 0.00 | 0.00 | 0.00 | 27 | 1009.2 |
| 20260504151124 | 13 | 269 | 4.8 | 8.0 | 0.00 | 0.00 | 0.00 | 31 | 1009.6 |
| 20260504151117 | 13 | 281 | 4.8 | 8.0 | 0.00 | 0.00 | 0.00 | 31 | 1009.3 |
| 20260504150617 | 13 | 263 | 1.6 | 6.4 | 0.00 | 0.00 | 0.00 | 31 | 1009.3 |
| 20260504150152 | 12 | 249 | 3.2 | 4.8 | 0.00 | 0.00 | 0.00 | 32 | 1009.5 |
| 20260504150138 | 12 | 245 | 1.6 | 4.8 | 0.00 | 0.00 | 0.00 | 32 | 1009.3 |
| 20260504141206 | 9 | 313 | 3.2 | 4.8 | 0.00 | 0.00 | 0.00 | 36 | 1009.7 |
| 20260504141117 | 10 | 315 | 1.6 | 3.2 | 0.00 | 0.00 | 0.00 | 36 | 1009.4 |
| 20260504140617 | 10 | 315 | 0.0 | 4.8 | 0.00 | 0.00 | 0.00 | 36 | 1009.3 |
| 20260504140613 | 9 | 315 | 0.0 | 4.8 | 0.00 | 0.00 | 0.00 | 36 | 1009.7 |
| 20260504140135 | 9 | 314 | 1.6 | 4.8 | 0.00 | 0.00 | 0.00 | 36 | 1009.7 |
| 20260504140117 | 10 | 315 | 0.0 | 4.8 | 0.00 | 0.00 | 0.00 | 36 | 1009.3 |
| 20260504130625 | 8 | 67 | 4.8 | 8.0 | 0.00 | 0.00 | 0.00 | 33 | 1009.3 |
| 20260504130617 | 8 | 71 | 4.8 | 8.0 | 0.00 | 0.00 | 0.00 | 33 | 1008.7 |
| 20260504130145 | 8 | 69 | 6.4 | 6.4 | 0.00 | 0.00 | 0.00 | 32 | 1009.2 |
| 20260504130138 | 8 | 62 | 4.8 | 6.4 | 0.00 | 0.00 | 0.00 | 32 | 1008.7 |
| 20260504120117 | 10 | 123 | 0.0 | 3.2 | 0.00 | 0.00 | 0.00 | 31 | 1008.7 |
| 20260504110628 | 9 | 102 | 4.8 | 9.7 | 0.00 | 0.00 | 0.00 | 35 | 1009.3 |
| 20260504110617 | 9 | 136 | 6.4 | 9.7 | 0.00 | 0.00 | 0.00 | 35 | 1009.1 |
| 20260504110146 | 8 | 138 | 8.0 | 8.0 | 0.00 | 0.00 | 0.00 | 35 | 1009.5 |
| 20260504110117 | 9 | 151 | 6.4 | 9.7 | 0.00 | 0.00 | 0.00 | 35 | 1009.0 |
| 20260504100604 | 8 | 159 | 1.6 | 4.8 | 0.00 | 0.00 | 0.00 | 34 | 1009.3 |
| 20260504100117 | 9 | 164 | 4.8 | 8.0 | 0.00 | 0.00 | 0.00 | 34 | 1009.1 |
| 20260504090117 | 13 | 258 | 1.6 | 4.8 | 0.00 | 0.00 | 0.00 | 23 | 1008.6 |
| 20260504081617 | 15 | 98 | 12.9 | 16.1 | 0.00 | 0.00 | 0.00 | 17 | 1008.7 |
| 20260504081603 | 15 | 90 | 9.7 | 16.1 | 0.00 | 0.00 | 0.00 | 17 | 1009.1 |
| 20260504081117 | 16 | 104 | 12.9 | 16.1 | 0.00 | 0.00 | 0.00 | 16 | 1008.7 |
| 20260504081008 | 15 | 98 | 11.3 | 16.1 | 0.00 | 0.00 | 0.00 | 16 | 1009.0 |
| 20260504080617 | 16 | 106 | 12.9 | 16.1 | 0.00 | 0.00 | 0.00 | 16 | 1008.7 |
| 20260504080117 | 16 | 108 | 12.9 | 17.7 | 0.00 | 0.00 | 0.00 | 17 | 1008.7 |
| 20260504070117 | 16 | 107 | 16.1 | 22.5 | 0.00 | 0.00 | 0.00 | 17 | 1008.8 |
| 20260504060117 | 16 | 103 | 16.1 | 20.9 | 0.00 | 0.00 | 0.00 | 18 | 1009.3 |
| 20260504050638 | 16 | 101 | 16.1 | 20.9 | 0.00 | 0.00 | 0.00 | 18 | 1009.7 |
| 20260504050117 | 16 | 104 | 16.1 | 20.9 | 0.00 | 0.00 | 0.00 | 17 | 1009.7 |
| 20260504050012 | 16 | 97 | 17.7 | 20.9 | 0.00 | 0.00 | 0.00 | 17 | 1010.0 |
| 20260504045617 | 16 | 105 | 17.7 | 22.5 | 0.00 | 0.00 | 0.00 | 16 | 1009.7 |
| 20260504045527 | 16 | 115 | 20.9 | 22.5 | 0.00 | 0.00 | 0.00 | 16 | 1010.1 |
| 20260504045117 | 17 | 101 | 17.7 | 22.5 | 0.00 | 0.00 | 0.00 | 16 | 1009.8 |
| 20260504045046 | 16 | 101 | 16.1 | 22.5 | 0.00 | 0.00 | 0.00 | 16 | 1010.0 |
| 20260504044617 | 17 | 98 | 17.7 | 22.5 | 0.00 | 0.00 | 0.00 | 16 | 1009.8 |
| 20260504044605 | 16 | 94 | 19.3 | 22.5 | 0.00 | 0.00 | 0.00 | 16 | 1010.0 |
| 20260504044138 | 17 | 99 | 16.1 | 20.9 | 0.00 | 0.00 | 0.00 | 16 | 1009.8 |
| 20260504044011 | 16 | 95 | 17.7 | 20.9 | 0.00 | 0.00 | 0.00 | 16 | 1010.1 |
| 20260504043617 | 17 | 100 | 16.1 | 22.5 | 0.00 | 0.00 | 0.00 | 16 | 1009.7 |
| 20260504043501 | 16 | 115 | 16.1 | 22.5 | 0.00 | 0.00 | 0.00 | 16 | 1009.8 |
| 20260504043117 | 17 | 100 | 17.7 | 24.1 | 0.00 | 0.00 | 0.00 | 16 | 1009.7 |
| 20260504043023 | 16 | 88 | 17.7 | 24.1 | 0.00 | 0.00 | 0.00 | 15 | 1010.0 |
| 20260504042617 | 17 | 103 | 17.7 | 24.1 | 0.00 | 0.00 | 0.00 | 16 | 1009.7 |
| 20260504042539 | 17 | 102 | 19.3 | 24.1 | 0.00 | 0.00 | 0.00 | 15 | 1009.9 |
| 20260504042117 | 17 | 105 | 16.1 | 20.9 | 0.00 | 0.00 | 0.00 | 15 | 1009.7 |
| 20260504042056 | 17 | 115 | 19.3 | 20.9 | 0.00 | 0.00 | 0.00 | 15 | 1009.9 |
| 20260504041638 | 17 | 103 | 16.1 | 20.9 | 0.00 | 0.00 | 0.00 | 15 | 1009.7 |
| 20260504041507 | 17 | 96 | 12.9 | 20.9 | 0.00 | 0.00 | 0.00 | 15 | 1010.1 |
| 20260504041117 | 17 | 104 | 16.1 | 20.9 | 0.00 | 0.00 | 0.00 | 14 | 1009.7 |
| 20260504041025 | 17 | 89 | 12.9 | 19.3 | 0.00 | 0.00 | 0.00 | 15 | 1009.8 |
| 20260504040617 | 17 | 104 | 16.1 | 20.9 | 0.00 | 0.00 | 0.00 | 15 | 1009.7 |
| 20260504040545 | 17 | 108 | 12.9 | 20.9 | 0.00 | 0.00 | 0.00 | 15 | 1009.9 |